Regional Weather Roundup
Issued by NWS Cleveland, OH

Home | Current Version | Previous Version | Graphics & Text | Print | Product List | Glossary On
Versions: 1 2 3 4 5 6 7 8 9 10 11 12 13 14 15 16 17 18 19 20 21 22 23 24 25 26 27 28 29 30 31 32 33 34 35 36 37 38 39 40 41 42 43 44 45 46 47 48 49 50
000
ASUS41 KCLE 211502
RWRCLE
OHIO REGIONAL WEATHER ROUNDUP
NATIONAL WEATHER SERVICE CLEVELAND, OH
1100 AM EDT THU AUG 21 2014

NOTE: "FAIR" INDICATES FEW OR NO CLOUDS BELOW 12,000 FEET WITH NO
SIGNIFICANT WEATHER AND/OR OBSTRUCTIONS TO VISIBILITY.

OHZ001>008-015>018-024>027-034-035-043-044-211600-
   NORTHWEST OHIO

CITY           SKY/WX    TMP DP  RH WIND       PRES   REMARKS
DEFIANCE       CLOUDY    76  68  76 SW10      30.04R
FINDLAY        CLOUDY    77  67  71 W12       30.04R
TOLEDO EXPRESS NOT AVBL
TOLEDO EXEC    MOSUNNY   78  69  73 W3        30.02R
LIMA           RAIN      73  69  87 SW12      30.07R FOG
$$

OHZ009>014-019>023-028>033-038-089-211600-
   NORTHEAST OHIO

CITY           SKY/WX    TMP DP  RH WIND       PRES   REMARKS
CLE-HOPKINS    MOSUNNY   77  70  79 SW10      30.04R
CLE-LAKEFRONT  MOSUNNY   75  69  81 NW7       30.00R
CUY CO. ARPT   NOT AVBL
LORAIN-ELYRIA  CLOUDY    78  70  76 SW7       30.03R
ASHTABULA      SUNNY     75  67  76 VRB3      30.03S
AKRON-CANTON   CLOUDY    76  68  76 SW10      30.05S
WOOSTER        SUNNY     76  70  82 SW6       30.06S
MANSFIELD      MOSUNNY   79  67  66 SW5       30.05S
YOUNGSTOWN     MOSUNNY   74  68  81 SW7       30.04R
$$

OHZ042-051>053-060>062-070>072-077>081-211600-
  SOUTHWEST OHIO

CITY           SKY/WX    TMP DP  RH WIND       PRES   REMARKS
CINC-COVINGTON TSTM      72  69  90 S9        30.09R FOG
CINC-LUNKEN    TSTM      71  70  96 S3        30.10R FOG
HAMILTON       RAIN      73  71  93 CALM      30.07F FOG
DAYTON         TSTM      72  70  93 SW8       30.08F
WRIGHT-PAT AFB NOT AVBL
DAYTON GENERAL LGT RAIN  72  71  97 SW8       30.08S FOG
WILMINGTON     CLOUDY    72  69  90 SW14      30.08R FOG
$$

OHZ036-037-039>041-045>050-054>059-063>069-073>076-082>088-211600-
  CENTRAL AND SOUTHEAST OHIO

CITY           SKY/WX    TMP DP  RH WIND       PRES   REMARKS
COLUMBUS       CLOUDY    74  67  78 CALM      30.05R
OSU AIRPORT    CLOUDY    75  67  76 SW5       30.06R
BOLTON FIELD   PTSUNNY  N/A N/A N/A SW5       30.07R
RICKENBACK AFB CLOUDY    73  66  77 W5        30.06R
NEWARK         LGT RAIN  71  68  90 CALM      30.06S FOG
MARION         PTSUNNY   78  66  66 SW6       30.04S
LANCASTER      CLOUDY    74  68  81 S3        30.06S
ZANESVILLE     CLOUDY    71  67  87 S6        30.07S
NEW PHILLY     CLOUDY    73  70  90 VRB3      30.06F
$$


USA.gov is the U.S. government's official web portal to all federal, state and local government web resources and services.